Regional Weather Roundup
Issued by NWS Portland, ME

Home | Current Version | Previous Version | Text Only | Print | Product List | Glossary On
Versions: 1 2 3 4 5 6 7 8 9 10 11 12 13 14 15 16 17 18 19 20 21 22 23 24 25 26 27 28 29 30 31 32 33 34 35 36 37 38 39 40 41 42 43 44 45 46 47 48 49 50
000
ASUS41 KGYX 281010
RWRGYX
WEATHER ROUNDUP FOR MAINE AND NEW HAMPSHIRE
NATIONAL WEATHER SERVICE GRAY ME
600 AM EDT MON JUL 28 2014

MEZ002-005-006-010-012-015-018-020-021-024-026-027-029-281100-
MAINE

CITY           SKY/WX    TMP DP  RH WIND       PRES   REMARKS
PORTLAND       FOG       66  65  96 SE6       29.66S VSB 3/4
SANFORD        CLOUDY    66  63  88 E3        29.65F VSB<1/4
BAR HARBOR     CLOUDY    64  64 100 CALM      29.70S VSB 1/4
WISCASSET      FOG       66  65  96 CALM      29.69R VSB 1/4
ROCKLAND       CLOUDY    63  61  94 S3        29.68R VSB<1/4
FRYEBURG       CLOUDY    68  67  96 CALM      29.67S FOG
LEWISTONAUBURN CLOUDY    66  64  94 CALM      29.67S VSB 3/4
AUGUSTA        FOG       66  65  96 SE3       29.68R VSB 1/4
WATERVILLE     CLOUDY    66  64  94 CALM      29.65R VSB 1/4
BANGOR         FOG       66  65  96 S5        29.69R VSB 1/2
GREENVILLE       N/A     62  61  96 CALM      29.69R
MILLINOCKET    CLOUDY    65  63  93 VRB3      29.70R FOG
HOULTON        CLOUDY    62  61  96 SE5       29.69R FOG
PRESQUE ISLE   CLOUDY    64  59  82 SE6       29.70R
FRENCHVILLE    CLOUDY    62  61  96 S6        29.68S
CARIBOU        LGT RAIN  64  62  93 S8        29.69R FOG
$$

NHZ002-005-008-009-011-012-014-281100-
NEW HAMPSHIRE

CITY           SKY/WX    TMP DP  RH WIND       PRES   REMARKS
PORTSMOUTH     FOG       66  65  97 NE5       29.62F VSB 1/16
ROCHESTER      FOG       68  67  96 E3        29.64F VSB<1/4
NASHUA         CLOUDY    69  69 100 CALM      29.62F
MANCHESTER     CLOUDY    69  67  93 E5        29.60F FOG
CONCORD        CLOUDY    68  67  96 CALM      29.63S FOG
LACONIA          N/A     66  64  94 CALM      29.64R
PLYMOUTH       CLOUDY    67  65  96 CALM      29.65R FOG
BERLIN         CLOUDY    59  59 100 NE3       29.68S
WHITEFIELD     FOG       59  57  93 CALM      29.67S VSB 1/4
JAFFREY        FOG       66  65  96 CALM      29.63F VSB 1/2
LEBANON        FOG       65  63  93 NW3       29.63S VSB 1/4
MT WASHINGTON  MOCLDY    52  45  76 W30         N/A
$$

VTZ005-007-008-281100-
VERMONT

CITY           SKY/WX    TMP DP  RH WIND       PRES   REMARKS
ST JOHNSBURY     N/A     61  60  97 MISG      29.64S
MONTPELIER     FOG       61  61 100 NE3       29.69S VSB<1/4
BURLINGTON     FOG       63  62  97 NE6       29.62S VSB 1
$$

MAZ007-012-024-CTZ003-RIZ002-NYZ038-NYZ072-281100-
SOUTHERN NEW ENGLAND AND NY

CITY           SKY/WX    TMP DP  RH WIND       PRES   REMARKS
BOSTON         CLOUDY    69  68  96 SE5       29.62F FOG
WORCESTER      FOG       66  66 100 SE5       29.63F VSB<1/4
NANTUCKET      FOG       68  66  94 SE8       29.66F VSB 1/4
PROVIDENCE     CLOUDY    72  71  97 S9        29.62S FOG
HARTFORD       CLOUDY    71  68  90 SE10      29.54F FOG
ALBANY         HVY RAIN  66  63  90 N3        29.57R FOG
NEW YORK CITY  CLOUDY    71  66  84 S7        29.54S
$$

ANZ081-ANZ082-ANZ150-NHZ014-MEZ023>029-281100-
COASTAL MARINE OBSERVATIONS

STATION/POSITION TIME  TEMP    WIND        PRES    WAVE
                       AIR SEA DIR/SP/G            HT/PER
                 (UTC) (F)     (DEG/KT/KT) (MB)    (FT/S)
MOUNT DESERT ROC 1000   58                 1005.9R
MATINICUS ROCK   0900          170/ 13/ 13 1004.8R
PORTLAND WX BUOY 1000   62 58  170/  6/  6 1004.5R   3/ 5
WELLS            1000   62 56   70/  3/  3 1003.1F
ISLE OF SHOALS   0900   66     170/  6/  6 1003.2F
JEFFREYS LEDGE   1000      63                N/A     2/ 5
CASHES LEDGE BUO 1000   66 65  170/  6/  8 1004.3S   3/ 5
$$

.............KEY..............
   WCI - WIND CHILL
   TC  - TEMPERATURE IN CELSIUS
   VSB - VISIBILITY IN MILES
   HX  - HEAT INDEX
   FAIR- INDICATES FEW OR NO CLOUDS BELOW 12,000 FT, WITH NO
         SIGNIFICANT WEATHER AND/OR OBSTRUCTIONS TO VISIBILITY.




USA.gov is the U.S. government's official web portal to all federal, state and local government web resources and services.